Regional Weather Roundup
Issued by NWS Glasgow, MT

Home | Current Version | Previous Version | Text Only | Print | Product List | Glossary On
Versions: 1 2 3 4 5 6 7 8 9 10 11 12 13 14 15 16 17 18 19 20 21 22 23 24 25 26 27 28 29 30 31 32 33 34 35 36 37 38 39 40 41 42 43 44 45 46 47 48 49 50
000
ASUS45 KGGW 281815
RWRGGW
HOURLY REGIONAL WEATHER ROUNDUP FOR NORTHEAST MONTANA
NATIONAL WEATHER SERVICE GLASGOW MONTANA
1200 PM MDT TUE JUL 28 2015

NOTE: "FAIR" INDICATES FEW OR NO CLOUDS BELOW 12,000 FEET WITH NO
SIGNIFICANT WEATHER AND/OR OBSTRUCTIONS TO VISISBILITY.

NORTHEAST MONTANA


CITY           SKY/WX    TMP DP  RH WIND       PRES   REMARKS
GLASGOW        LGT RAIN  57  53  86 W29G40    29.77R
6HR MIN TEMP:  56; 6HR MAX TEMP:  57; 6HR PCP:  0.27;

PLENTYWOOD       N/A     58  54  86 W25G43      N/A
WOLF POINT     LGT RAIN  60  53  77 W36G51    29.70R
JORDAN           N/A     62  53  72 W31G43    29.92R
WINNETT          N/A     66  45  46 W24G38      N/A
SIDNEY         PTSUNNY   63  52  67 SW32G43   29.66S
GLENDIVE       PTSUNNY   61  54  77 W35G41    29.81R
MALTA            N/A     56  51  84 W18G26      N/A
SCOBEY           N/A     55  48  76 W33G48    29.58R HAZE

FORT PECK REPORTS


CITY           SKY/WX    TMP DP  RH WIND       PRES   REMARKS
FORT PECK        N/A     56  54  93 W35G53      N/A
THE PINES        N/A     57  50  77 W20G39      N/A

SOUTHEAST MONTANA


CITY           SKY/WX    TMP DP  RH WIND       PRES   REMARKS
BILLINGS       PTSUNNY   65  39  38 W25G35    30.14R
MILES CITY     CLOUDY    65  47  52 W36G47    29.95R
BAKER          CLOUDY    61  47  59 W36G56    29.87R
LIVINGSTON     CLOUDY    61  37  41 W22G33    30.22R

CENTRAL MONTANA


CITY           SKY/WX    TMP DP  RH WIND       PRES   REMARKS
HAVRE          CLOUDY    67  49  52 NW23G30   29.98R
LEWISTOWN      PTSUNNY   62  41  46 W24G37    30.11R
GREAT FALLS    MOSUNNY   69  40  34 W21       30.11R
CUT BANK       MOSUNNY   69  36  29 NW14G25   30.09S
HELENA         MOSUNNY   65  40  39 W18G28    30.21R
BUTTE          PTSUNNY   56  36  47 NW14G20   30.30R
BOZEMAN        PTSUNNY   62  38  40 W13G21    30.25S

WESTERN MONTANA


CITY           SKY/WX    TMP DP  RH WIND       PRES   REMARKS
MISSOULA       SUNNY     62  46  55 VRB6      30.25S
KALISPELL      NOT AVBL

NORTH DAKOTA


CITY           SKY/WX    TMP DP  RH WIND       PRES   REMARKS
WILLISTON      LGT RAIN  59  55  87 W31G46    29.54R FOG
DICKINSON      PTSUNNY   64  50  60 W41G55    29.74R
MINOT          CLOUDY    66  53  63 SW24G36   29.52F
BISMARCK       CLOUDY    71  49  45 W32G44    29.73S

SOUTHERN SASKATCHEWAN


CITY           SKY/WX    TMP DP  RH WIND       PRES   REMARKS
REGINA         LGT RAIN  61  61 100 NW5       29.27R FOG
MOOSE JAW      RAIN      57  55  94 NW29G44   29.38R FOG
ESTEVAN        LGT RAIN  63  57  82 SW25G36   29.32F
SWIFT CURRENT  LGT RAIN  54 N/A N/A NW23G29   29.73R



USA.gov is the U.S. government's official web portal to all federal, state and local government web resources and services.